Mountain Home, ID

7:19 PM MDT on July 20, 2017 (GMT -0600)
Mountain Home Air Force Base

Weather History for KMUO - May, 2013

Change the Weather History Date:

Wednesday, May 1, 2013

  Actual Average Record
Temperature  
Mean Temperature 45 °F 54 °F  
Max Temperature 60 °F 67 °F 91 °F (1985)
Min Temperature 29 °F 39 °F 21 °F (1946)
Degree Days  
Heating Degree Days 20 12  
Month to date heating degree days 20 12  
Cooling Degree Days 0 0  
Month to date cooling degree days 0 0  
Moisture  
Dew Point 13 °F    
Average Humidity 32    
Maximum Humidity 64    
Minimum Humidity 12    
Precipitation  
Precipitation 0.00 in 0.04 in 0.36 in (1938)
Month to date precipitation 0.00 0.04  
Sea Level Pressure  
Sea Level Pressure 30.45 in    
Wind  
Wind Speed 15 mph (NW)    
Max Wind Speed 20 mph    
Max Gust Speed 23 mph    
Visibility 10 miles    
Events      
T = Trace of Precipitation, MM = Missing Value Source: NWS Daily Summary

Daily Weather History Graph

Daily Weather History Graph

Search for Another Location

Airport or City:

Trip Planner

Search our weather history database for the weather conditions in past years. The results will help you decide how hot, cold, wet, or windy it might be!

Date:

Astronomy

May. 01, 2013 Rise Set
Actual Time 6:36 AM MDT 8:44 PM MDT
Civil Twilight 6:05 AM MDT 9:16 PM MDT
Nautical Twilight 5:27 AM MDT 9:54 PM MDT
Astronomical Twilight 4:45 AM MDT 10:36 PM MDT
Moon 1:57 AM MDT (5/1) 12:20 PM MDT (5/1)
Length of Visible Light 15h 10m
Length of Day
14h 08m
Waning Gibbous, 58% of the Moon is Illuminated
May 1
Waning Gibbous
May 2
Last Quarter
May 9
New
May 17
First Quarter
May 24
Full

Hourly Weather History & Observations

Time (MDT) Temp. Windchill Dew Point Humidity Pressure Visibility Wind Dir Wind Speed Gust Speed Precip Events Conditions
12:58 AM 35.2 °F 25.4 °F 18.3 °F 50% 30.27 in 10.0 mi NW 16.1 mph - N/A   Clear
1:58 AM 35.1 °F 24.1 °F 18.9 °F 52% 30.29 in 10.0 mi NW 19.6 mph - N/A   Clear
2:58 AM 33.3 °F 22.5 °F 18.5 °F 55% 30.30 in 10.0 mi NW 17.3 mph - N/A   Clear
3:58 AM 32.5 °F 21.5 °F 17.4 °F 54% 30.33 in 10.0 mi NW 17.3 mph - N/A   Clear
4:58 AM 31.6 °F 21.2 °F 16.7 °F 54% 30.36 in 10.0 mi NW 15.0 mph - N/A   Clear
5:58 AM 30.7 °F 21.4 °F 18.1 °F 60% 30.40 in 10.0 mi NW 11.5 mph - N/A   Clear
6:58 AM 29.8 °F 19.3 °F 18.9 °F 64% 30.42 in 10.0 mi NW 13.8 mph - N/A   Clear
7:58 AM 33.8 °F 23.5 °F 19.4 °F 56% 30.45 in 10.0 mi NW 16.1 mph - N/A   Clear
8:58 AM 39.4 °F 31.1 °F 17.6 °F 41% 30.47 in 10.0 mi NW 15.0 mph - N/A   Clear
9:58 AM 44.2 °F 37.6 °F 12.6 °F 28% 30.48 in 10.0 mi NW 13.8 mph - N/A   Clear
10:58 AM 47.3 °F - 11.5 °F 24% 30.49 in 10.0 mi NNW 16.1 mph 19.6 mph N/A   Clear
11:58 AM 49.3 °F - 10.4 °F 21% 30.50 in 10.0 mi NW 15.0 mph 18.4 mph N/A   Clear
12:58 PM 52.3 °F - 10.9 °F 19% 30.50 in 10.0 mi NW 12.7 mph 23.0 mph N/A   Clear
1:47 PM 53.6 °F - 6.8 °F 15% 30.46 in 10.0 mi West 12.7 mph 18.4 mph N/A   Clear
1:58 PM 54.1 °F - 6.6 °F 15% 30.50 in 10.0 mi WNW 10.4 mph 19.6 mph N/A   Clear
2:58 PM 55.8 °F - 3.9 °F 12% 30.49 in 10.0 mi WNW 11.5 mph - N/A   Clear
3:58 PM 56.7 °F - 5.2 °F 13% 30.49 in 10.0 mi NW 12.7 mph 17.3 mph N/A   Clear
4:58 PM 58.3 °F - 9.3 °F 14% 30.47 in 10.0 mi WNW 10.4 mph - N/A   Clear
5:47 PM 59.0 °F - 10.4 °F 15% 30.45 in 10.0 mi North 12.7 mph 19.6 mph N/A   Clear
5:58 PM 59.0 °F - 8.4 °F 13% 30.48 in 10.0 mi NW 11.5 mph 17.3 mph N/A   Clear
6:58 PM 58.5 °F - 9.5 °F 14% 30.50 in 10.0 mi NW 16.1 mph 23.0 mph N/A   Clear
7:58 PM 56.8 °F - 11.8 °F 17% 30.50 in 10.0 mi NW 16.1 mph - N/A   Clear
9:55 PM 44.6 °F 40.7 °F 12.2 °F 27% 30.52 in 10.0 mi West 6.9 mph - N/A   Clear
10:58 PM 43.7 °F 38.6 °F 12.0 °F 28% 30.56 in 10.0 mi West 9.2 mph - N/A   Clear
11:58 PM 41.0 °F 38.0 °F 11.8 °F 30% 30.58 in 10.0 mi WNW 4.6 mph - N/A   Clear